Location: Barrio Las Umbrías
(40.4173°N, 4.8685°W)
Time: 12:45:03
(UTC+00:00)

Cosmos 1727 Rocket - Pass Details

Date: 17 August 2022
Orbit: 962 x 995 km, 82.9° (Epoch: 27 September)

Event Time Altitude Azimuth Distance (km) Brightness Sun altitude
Rises 19:46:28 0° 173° (S) 3,638 6.7 -6.6°
Reaches altitude 10° 19:49:00 10° 170° (S) 2,693 6.0 -7.0°
Maximum altitude 19:55:01 59° 92° (E) 1,107 4.1 -8.0°
Drops below altitude 10° 20:01:04 10° 15° (NNE) 2,706 6.5 -9.1°
Sets 20:03:36 0° 12° (NNE) 3,657 7.2 -9.5°
